Wind_Speed
28 27 28 29 31 32 33 34 36 37 38 38 37 36 35 35 35 35 35 36 37 39 40 41 42 43 43 43 44 44 45 46 46 47 47 48 49 50 51 52 52 52 52
32 31 32 33 34 35 36 36 36 36 36 36 35 35 35 35 36 37 38 39 39 40 40 41 42 44 45 46 47 48 49 51 52 53 53 53 53 53 53 54 54 54 54
33 34 35 36 36 35 34 33 32 32 33 33 34 34 35 36 37 39 40 40 40 40 41 43 45 47 49 52 54 55 57 58 59 60 61 61 60 59 58 57 56 56 55
33 35 36 34 32 32 31 31 30 31 32 33 34 34 34 36 38 39 41 42 42 44 46 48 50 51 53 56 58 61 63 64 65 66 66 66 65 65 65 64 63 61 60
35 36 35 33 32 32 32 32 32 33 34 35 35 36 37 38 40 42 43 45 47 50 52 54 56 58 59 61 63 65 68 70 70 70 71 71 70 69 69 69 69 69 68
36 38 38 37 36 35 34 34 34 35 37 38 39 39 41 42 44 46 48 51 53 56 58 61 63 65 67 68 68 69 71 74 75 77 78 78 77 75 73 72 72 72 73
38 39 39 38 37 37 37 37 37 39 41 42 43 44 46 48 50 53 55 57 60 61 64 66 68 70 72 74 75 75 75 76 78 80 82 83 83 83 81 78 77 76 76
40 40 38 37 38 39 39 40 42 43 45 47 49 51 52 53 56 58 60 61 63 64 66 69 71 74 77 79 80 81 82 81 81 82 83 85 86 87 87 87 85 83 81
40 38 38 39 40 41 42 44 45 47 49 52 55 59 62 63 62 61 62 65 67 70 73 76 78 80 82 84 85 86 87 87 87 86 86 87 89 91 93 93 92 90 86
40 40 40 41 42 43 45 47 49 52 55 58 61 64 67 69 72 71 70 71 74 76 78 81 83 86 88 88 89 90 92 93 93 92 92 92 93 94 96 97 98 97 92
40 40 41 42 44 46 49 51 54 57 60 63 66 68 69 72 74 76 77 78 80 82 84 87 89 91 93 94 96 98 99 100 100 99 98 97 97 97 97 98 100 100 97
39 40 42 44 47 50 52 55 58 61 64 67 69 71 73 75 78 80 82 83 85 87 90 92 95 97 99 101 102 103 104 104 104 103 102 100 97 95 94 92 92 94 96
41 43 46 48 51 53 56 59 62 65 67 69 71 73 75 77 80 84 88 90 91 91 94 96 99 101 102 104 104 104 103 100 97 96 94 92 90 88 85 81 79 82 88
44 46 49 51 54 57 60 63 66 68 70 72 73 75 77 80 83 88 93 98 100 98 99 100 100 101 101 101 100 98 95 90 85 83 80 79 78 77 76 74 74 77 81
46 49 52 55 58 61 64 67 69 70 71 72 74 77 80 84 88 93 98 103 107 108 106 103 101 98 96 94 90 87 84 79 76 73 72 71 70 70 69 68 68 71 75
49 52 56 59 62 65 68 70 71 71 72 74 78 81 85 90 95 99 103 105 106 107 108 102 97 92 86 84 82 81 78 75 72 69 68 68 68 68 67 67 67 66 70
54 57 61 63 66 68 70 71 71 72 74 77 82 87 92 97 100 103 105 104 102 100 100 96 90 84 81 78 75 74 73 71 68 65 65 65 65 66 66 66 66 65 66
58 61 65 67 69 69 70 70 71 73 77 82 88 93 98 102 104 104 102 99 95 93 93 91 84 81 77 73 69 65 63 63 63 63 63 63 62 63 63 64 65 65 65
62 66 68 68 68 67 68 70 73 77 83 88 94 99 103 105 103 100 95 90 88 87 86 86 82 78 72 66 63 59 57 57 58 61 61 60 60 60 60 61 63 65 66
66 67 66 65 65 66 70 74 78 83 88 94 99 102 104 102 97 92 88 85 84 83 81 82 82 75 68 63 62 60 57 55 55 56 55 54 55 55 55 56 59 61 63
66 64 63 63 66 70 75 80 84 89 95 99 102 102 100 95 89 85 82 81 81 80 81 83 79 71 66 64 62 60 57 52 48 48 49 46 48 48 48 50 51 53 56
64 61 62 66 71 76 81 86 91 96 100 102 102 98 93 86 80 77 75 76 77 78 83 81 74 67 64 62 59 55 52 48 40 37 41 37 38 36 35 36 38 41 46
61 62 66 71 76 82 88 93 97 101 103 102 98 91 83 76 73 71 72 73 73 78 79 73 68 64 61 57 53 47 43 40 34 31 30 24 23 22 22 23 25 29 36
62 66 71 77 83 88 94 98 102 104 102 97 88 80 74 70 69 71 72 73 77 76 68 63 61 59 54 49 44 40 36 30 25 24 21 12 11 12 14 17 20 21 25
66 71 77 83 88 93 98 103 106 104 96 87 77 72 70 69 69 73 77 78 76 64 56 54 51 48 44 40 37 34 31 26 18 16 15 7 4 6 8 11 13 11 13
71 77 82 88 93 97 102 105 104 98 89 79 72 68 68 71 73 77 78 74 61 51 46 40 36 34 33 32 32 31 29 23 14 12 13 7 3 3 2 6 6 4 5
Wind_Direction
294 291 290 290 290 290 291 292 291 290 289 289 288 288 288 290 292 294 294 293 293 293 293 293 292 291 290 288 288 288 288 287 286 285 284 282 280 278 277 276 275 274 273
290 292 292 292 291 290 291 291 290 288 288 288 289 290 292 293 295 295 294 292 291 291 291 290 289 289 288 288 287 286 286 286 286 285 284 283 281 279 277 275 274 273 272
290 293 294 294 293 292 292 293 293 293 292 291 291 291 292 294 295 293 292 291 290 289 287 285 285 285 285 286 286 286 286 285 285 284 284 283 282 279 277 274 272 270 269
293 296 296 295 294 294 294 295 296 295 294 293 293 293 294 294 292 291 289 289 289 287 286 286 285 286 286 286 287 287 286 284 284 283 282 281 279 278 275 272 270 268 267
297 298 296 295 295 295 295 295 295 295 294 294 295 295 294 292 291 291 292 291 290 290 289 289 288 288 288 288 289 288 287 285 283 282 280 279 278 276 275 272 270 268 267
300 301 300 298 297 297 296 296 296 297 296 297 297 297 296 295 294 294 293 292 291 291 290 290 290 290 290 290 289 288 286 285 284 283 281 279 277 274 272 271 269 268 267
301 301 300 300 300 300 299 299 299 300 300 300 299 298 298 297 295 294 293 292 292 292 293 293 293 293 292 292 290 288 286 284 283 281 280 279 278 275 272 269 267 265 265
301 301 301 301 301 301 301 302 302 302 302 301 300 298 296 294 293 293 291 291 291 292 292 292 293 293 293 292 291 289 287 285 282 280 279 277 275 273 271 268 266 262 260
300 300 301 302 302 303 303 303 302 301 301 300 300 299 297 296 294 293 292 292 292 293 294 294 294 294 293 291 289 287 286 285 284 282 278 275 272 270 268 266 263 261 258
301 301 302 303 303 302 302 301 301 301 300 300 300 300 299 299 297 296 295 295 295 295 296 296 296 295 294 292 290 288 288 287 286 283 280 276 272 268 265 263 260 258 256
300 302 302 302 302 302 302 302 301 300 300 300 300 300 299 298 297 296 296 296 297 297 298 298 298 297 296 294 293 293 292 290 288 285 282 278 274 269 265 260 257 254 251
300 301 301 301 301 301 301 300 300 300 301 301 300 300 299 299 299 299 298 298 298 299 300 300 299 299 298 297 295 294 293 291 289 286 283 280 276 271 267 262 257 252 249
301 301 301 300 300 301 301 302 302 302 302 301 301 301 301 302 302 302 301 301 301 301 301 302 301 301 299 298 296 294 292 289 287 284 282 278 275 272 268 263 256 251 246
300 300 300 301 303 304 305 304 304 303 303 303 304 304 304 305 305 305 305 305 304 303 303 303 302 301 300 298 296 294 292 290 287 285 281 278 275 272 269 264 257 251 245
300 301 303 305 307 307 306 306 306 306 306 306 306 306 307 308 308 308 308 309 308 306 305 305 304 303 302 299 297 295 293 292 288 285 280 276 272 268 266 263 259 254 247
303 306 308 309 309 309 309 309 308 308 308 308 309 310 310 310 310 311 311 310 308 308 308 308 307 305 303 301 299 297 295 292 289 285 280 276 271 267 265 263 260 256 248
308 310 311 311 311 310 310 310 310 310 310 311 312 312 312 313 313 312 311 310 309 308 308 309 309 308 306 303 301 297 293 291 288 286 284 280 276 272 267 263 260 257 251
311 312 312 312 312 312 311 312 312 313 313 313 313 313 314 314 313 311 310 309 309 308 309 310 310 309 308 306 302 298 293 291 289 288 286 283 279 273 268 263 259 257 253
313 313 314 314 313 313 313 314 314 314 314 314 314 314 314 313 312 310 309 308 308 308 309 310 311 310 308 307 305 301 296 293 292 290 288 284 279 274 269 264 261 258 254
315 315 315 315 314 315 316 316 315 314 314 314 314 314 313 312 310 309 308 308 308 309 310 311 311 310 308 307 305 302 298 296 294 292 289 285 281 276 272 268 264 259 253
314 314 314 315 317 317 317 316 315 315 315 315 314 313 312 311 309 308 308 309 310 311 312 312 311 311 310 307 305 303 302 300 299 295 289 287 284 281 276 271 266 260 252
313 314 315 317 319 319 319 318 318 318 317 316 315 314 312 310 309 309 309 310 311 313 313 312 311 311 310 308 307 306 306 305 303 294 291 291 288 286 281 276 270 260 247
313 314 316 318 319 319 320 320 319 319 317 316 315 314 312 311 310 310 310 311 311 312 312 311 311 311 311 310 310 310 310 310 307 298 293 293 288 292 291 289 281 266 247
312 314 316 317 318 318 319 319 319 319 318 317 316 314 313 312 312 311 312 312 313 314 312 311 311 310 311 312 314 317 319 318 310 298 294 293 294 306 307 300 289 274 248
313 315 317 317 318 319 319 319 319 319 318 317 316 314 314 313 313 312 313 313 313 313 312 312 311 311 313 316 320 324 328 329 316 287 283 280 296 314 315 304 299 289 248
315 317 318 318 319 319 320 320 320 319 318 317 316 315 315 314 313 312 312 313 314 314 315 314 314 315 319 322 324 327 333 336 323 288 280 267 260 284 297 314 317 314 232
Height
5801 5799 5797 5795 5794 5792 5790 5788 5785 5783 5781 5779 5777 5776 5774 5772 5770 5768 5766 5764 5762 5760 5757 5755 5752 5749 5747 5746 5744 5741 5739 5738 5736 5735 5734 5733 5733 5732 5731 5730 5729 5729 5729
5795 5794 5792 5789 5787 5784 5782 5780 5778 5776 5774 5772 5770 5769 5767 5764 5762 5759 5757 5755 5753 5751 5748 5745 5742 5739 5736 5734 5732 5730 5728 5725 5723 5721 5720 5719 5718 5718 5717 5716 5715 5715 5715
5789 5787 5785 5783 5780 5777 5774 5772 5770 5768 5766 5765 5763 5761 5758 5755 5752 5750 5747 5745 5743 5741 5738 5734 5731 5728 5725 5722 5719 5717 5714 5711 5709 5707 5705 5704 5703 5702 5702 5701 5701 5700 5700
5783 5781 5778 5775 5772 5769 5767 5765 5763 5761 5758 5757 5755 5752 5749 5746 5743 5740 5737 5735 5732 5729 5725 5722 5718 5715 5712 5708 5705 5701 5698 5695 5693 5690 5688 5687 5686 5685 5684 5684 5684 5684 5684
5777 5774 5771 5768 5765 5762 5760 5757 5755 5753 5751 5748 5746 5743 5740 5737 5733 5730 5727 5723 5719 5716 5712 5708 5704 5701 5698 5694 5690 5684 5679 5676 5674 5672 5670 5668 5666 5665 5664 5664 5664 5665 5665
5771 5768 5765 5761 5758 5755 5752 5749 5747 5744 5740 5738 5735 5732 5729 5726 5722 5719 5715 5711 5707 5702 5698 5693 5689 5684 5680 5676 5671 5666 5660 5656 5652 5649 5646 5645 5644 5643 5643 5642 5643 5644 5645
5763 5760 5757 5754 5751 5747 5744 5741 5738 5734 5730 5726 5724 5721 5718 5714 5710 5706 5701 5696 5691 5686 5681 5676 5670 5665 5659 5654 5648 5643 5638 5635 5631 5626 5622 5620 5619 5619 5619 5619 5620 5621 5623
5756 5752 5749 5745 5742 5739 5735 5732 5728 5724 5720 5715 5711 5708 5706 5704 5699 5693 5686 5681 5676 5671 5665 5658 5652 5645 5638 5631 5624 5617 5612 5609 5607 5603 5600 5596 5593 5592 5591 5592 5594 5595 5598
5748 5744 5741 5737 5733 5730 5726 5722 5718 5714 5709 5704 5698 5692 5687 5683 5680 5678 5671 5665 5659 5652 5645 5638 5631 5623 5615 5607 5600 5592 5585 5581 5578 5575 5572 5568 5565 5562 5561 5561 5563 5565 5569
5739 5735 5732 5728 5724 5721 5716 5712 5707 5701 5696 5691 5685 5678 5670 5661 5655 5652 5650 5644 5637 5630 5623 5615 5607 5598 5589 5580 5571 5563 5555 5550 5546 5542 5539 5536 5533 5530 5528 5528 5529 5531 5535
5731 5727 5723 5720 5715 5711 5706 5701 5695 5689 5683 5676 5670 5663 5656 5647 5638 5631 5627 5622 5616 5608 5599 5590 5580 5570 5559 5548 5538 5529 5521 5514 5508 5503 5499 5497 5494 5491 5490 5490 5491 5495 5500
5723 5719 5715 5711 5706 5701 5695 5689 5683 5676 5669 5661 5653 5645 5637 5628 5619 5610 5603 5599 5593 5586 5575 5564 5552 5540 5527 5514 5504 5494 5485 5475 5467 5461 5457 5454 5452 5449 5448 5451 5456 5461 5468
5715 5711 5706 5701 5695 5689 5683 5676 5669 5661 5653 5645 5637 5628 5619 5609 5598 5588 5578 5572 5568 5563 5552 5540 5524 5509 5495 5481 5469 5458 5450 5441 5431 5423 5419 5415 5412 5411 5413 5416 5421 5427 5435
5706 5701 5696 5689 5683 5676 5669 5662 5654 5646 5637 5628 5619 5609 5600 5590 5579 5567 5554 5542 5534 5532 5526 5515 5499 5481 5465 5448 5434 5422 5414 5407 5400 5393 5387 5383 5380 5380 5382 5384 5388 5394 5401
5696 5690 5684 5678 5670 5663 5655 5647 5638 5629 5620 5610 5600 5591 5581 5571 5559 5546 5531 5513 5497 5488 5490 5482 5467 5451 5434 5417 5403 5391 5383 5377 5370 5365 5360 5356 5354 5353 5354 5356 5359 5364 5371
5685 5679 5672 5664 5656 5648 5639 5630 5621 5612 5602 5593 5583 5573 5562 5549 5536 5521 5505 5488 5468 5450 5444 5444 5432 5422 5406 5391 5377 5364 5354 5348 5343 5339 5334 5330 5329 5329 5330 5331 5333 5337 5343
5673 5666 5658 5649 5641 5632 5623 5614 5604 5595 5586 5576 5565 5553 5540 5525 5510 5495 5478 5462 5444 5425 5409 5409 5401 5390 5378 5366 5355 5343 5331 5323 5319 5315 5310 5305 5303 5303 5304 5305 5307 5310 5315
5660 5652 5643 5634 5625 5616 5607 5598 5589 5580 5569 5557 5544 5530 5515 5499 5484 5467 5450 5435 5420 5404 5387 5378 5375 5364 5353 5341 5331 5322 5312 5304 5297 5292 5286 5281 5278 5276 5276 5278 5280 5284 5288
5646 5637 5628 5619 5609 5601 5592 5582 5573 5562 5550 5536 5521 5506 5490 5473 5457 5440 5425 5411 5397 5384 5370 5356 5348 5340 5330 5320 5309 5302 5294 5287 5279 5270 5263 5258 5254 5251 5250 5252 5254 5257 5261
5631 5622 5613 5604 5595 5585 5576 5565 5555 5543 5530 5515 5498 5481 5464 5446 5430 5415 5402 5390 5376 5364 5352 5338 5326 5317 5308 5300 5289 5281 5275 5270 5261 5251 5242 5236 5231 5228 5227 5227 5228 5230 5233
5617 5608 5598 5589 5579 5569 5558 5547 5536 5523 5508 5492 5475 5456 5439 5422 5406 5393 5380 5368 5356 5344 5331 5317 5305 5296 5287 5278 5269 5261 5253 5249 5244 5232 5223 5219 5212 5209 5208 5205 5204 5206 5209
5603 5593 5584 5575 5564 5553 5540 5527 5513 5500 5483 5466 5450 5433 5417 5401 5387 5376 5364 5351 5339 5326 5311 5297 5286 5277 5269 5259 5250 5242 5234 5228 5225 5219 5207 5205 5198 5195 5192 5190 5188 5187 5188
5589 5580 5570 5560 5548 5535 5521 5506 5491 5475 5459 5441 5424 5409 5395 5382 5368 5358 5347 5337 5326 5313 5296 5280 5269 5261 5252 5244 5235 5229 5222 5214 5208 5203 5197 5195 5190 5187 5184 5181 5178 5175 5176
5576 5566 5556 5544 5531 5516 5501 5485 5468 5452 5435 5417 5401 5387 5375 5364 5352 5339 5328 5318 5307 5295 5280 5268 5257 5247 5239 5231 5223 5217 5210 5205 5200 5194 5189 5187 5186 5183 5180 5177 5173 5170 5170
5563 5552 5540 5527 5513 5497 5480 5462 5444 5428 5412 5397 5383 5370 5357 5347 5336 5322 5309 5299 5289 5279 5268 5258 5247 5237 5230 5222 5215 5209 5203 5198 5194 5189 5185 5183 5182 5180 5179 5175 5172 5169 5170
5548 5537 5524 5508 5493 5478 5459 5439 5419 5404 5392 5381 5369 5356 5343 5330 5318 5305 5292 5281 5271 5264 5257 5248 5240 5232 5225 5218 5211 5204 5198 5193 5189 5186 5182 5180 5180 5178 5177 5175 5173 5171 5172